This is the latest recevied weather packets stored in our database for station/object N8SDR. If no packets are shown the sender has not sent any weather packets the latest 1 day(s).
| Time | Temp. | Humidity | Pressure | Rain* | Wind** | Luminosity | Snow |
|---|---|---|---|---|---|---|---|
| 1778000524 | 20° C | 75% | 1005.4 hPa | 0 mm | 0.89 m/s, 207° | 350 W/m² | - |
| 1778000228 | 20° C | 75% | 1005.4 hPa | 0 mm | 0 m/s | 192 W/m² | - |
| 1777999920 | 20° C | 75% | 1005.4 hPa | 0 mm | 0.45 m/s, 229° | 218 W/m² | - |
| 1777999615 | 19.44° C | 75% | 1005.5 hPa | 0 mm | 0.89 m/s, 180° | 331 W/m² | - |
| 1777999313 | 19.44° C | 76% | 1005.3 hPa | 0 mm | 0.89 m/s, 236° | 237 W/m² | - |
| 1777999011 | 19.44° C | 76% | 1005.4 hPa | 0 mm | 0.45 m/s, 302° | 198 W/m² | - |
| 1777998709 | 19.44° C | 77% | 1005.5 hPa | 0 mm | 1.34 m/s, 223° | 195 W/m² | - |
| 1777998406 | 19.44° C | 76% | 1005.5 hPa | 0 mm | 2.24 m/s, 196° | 156 W/m² | - |
| 1777998104 | 19.44° C | 76% | 1005.7 hPa | 0 mm | 0.89 m/s, 193° | 132 W/m² | - |
| 1777997800 | 19.44° C | 76% | 1005.3 hPa | 0 mm | 0 m/s | 121 W/m² | - |
| 1777997498 | 19.44° C | 76% | 1005.6 hPa | 0 mm | 2.68 m/s, 197° | 147 W/m² | - |
| 1777997196 | 19.44° C | 75% | 1005.5 hPa | 0 mm | 2.24 m/s, 229° | 80 W/m² | - |
| 1777996893 | 19.44° C | 75% | 1005.6 hPa | 0 mm | 0.89 m/s, 219° | 78 W/m² | - |
| 1777996588 | 20° C | 74% | 1005.5 hPa | 0 mm | 1.34 m/s, 183° | 100 W/m² | - |
| 1777996285 | 20° C | 74% | 1005.6 hPa | 0 mm | 0 m/s | 162 W/m² | - |
| 1777995981 | 20° C | 74% | 1005.5 hPa | 0 mm | 1.79 m/s, 223° | 214 W/m² | - |
| 1777995677 | 20° C | 75% | 1005.6 hPa | 0 mm | 0 m/s | 205 W/m² | - |
| 1777995375 | 20° C | 75% | 1005.4 hPa | 0 mm | 0.45 m/s, 236° | 265 W/m² | - |
| 1777995072 | 20° C | 75% | 1005.2 hPa | 0 mm | 3.13 m/s, 216° | 263 W/m² | - |
| 1777994773 | 20° C | 76% | 1005.4 hPa | 0 mm | 1.34 m/s, 217° | 316 W/m² | - |
| 1777994464 | 20° C | 77% | 1005.2 hPa | 0 mm | 1.79 m/s, 196° | 397 W/m² | - |
| 1777994160 | 19.44° C | 78% | 1005.4 hPa | 0 mm | 2.24 m/s, 176° | 379 W/m² | - |
| 1777993858 | 19.44° C | 79% | 1005.3 hPa | 0 mm | 1.79 m/s, 205° | 409 W/m² | - |
| 1777993554 | 19.44° C | 80% | 1005.6 hPa | 0 mm | 1.79 m/s, 228° | 399 W/m² | - |
| 1777993250 | 19.44° C | 80% | 1005.3 hPa | 0 mm | 2.24 m/s, 187° | 448 W/m² | - |
* Rain latest hour (hover to see other rain measurements)
** Current wind speed in m/s (hover to see current wind gust speed)